[[{"header":{"parameterUnit":"m.s-1","parameterCategory":1,"la1":30.2991,"la2":30.254,"lo1":-89.0895,"lo2":-89.0444,"dy":0.0017,"dx":0.0017,"nx":28,"ny":28,"refTime":"2024-06-11T03:00:00:Z","depth":0,"parameterNumber":2,"parameterNumberName":"U-component_of_WINDS"},"data":[0,0,0,0,0,0,0,0,0,0,0,0,0,0,0,0,0,0,0,0,0,0,0,0,0,0,0,0,0,0,0,0,0,0,0,0,0,0,0,0,0,0,0,0,0,0,0,0,0,0,0,0,0,0,0,0,0,0,-2.0457,-2.0457,0,-2.054,-2.0541,-2.0542,-2.0625,-2.0626,-2.0627,-2.0628,-2.0706,-2.0707,-2.0708,0,0,0,0,0,0,0,0,0,0,0,0,0,-2.0362,-2.0363,-2.0456,-2.0458,-2.0459,-2.054,-2.0541,-2.0543,-2.0625,-2.0626,-2.0627,-2.0629,-2.0705,-2.0707,-2.0708,0,0,0,0,0,0,0,0,0,0,0,0,0,-2.042,-2.0364,-2.0456,-2.051,-2.0515,-2.054,-2.0541,-2.0543,-2.0624,-2.0626,-2.0628,-2.0629,-2.0705,-2.0706,-2.0708,-2.0684,0,0,-2.0713,-2.0713,0,0,0,0,0,0,0,0,-2.0416,-2.0423,-2.0501,-2.0506,-2.0512,-2.0574,-2.0537,-2.059,-2.0624,-2.0583,-2.0628,-2.063,-2.066,-2.0665,-2.0677,-2.0688,-2.0691,-2.0713,-2.0714,-2.0714,-2.0715,0,0,0,0,0,0,0,-2.0412,-2.042,-2.0489,-2.0502,-2.0509,-2.0528,-2.0538,-2.0547,-2.0611,-2.0586,-2.0593,-2.0602,-2.0663,-2.0675,-2.068,-2.0692,-2.0713,-2.0714,-2.0715,-2.0716,-2.0688,-2.0687,0,0,0,0,0,0,-2.0401,-2.0416,-2.0487,-2.0492,-2.0468,-2.0528,-2.0539,-2.0552,-2.0611,-2.0622,-2.06,-2.0605,-2.0672,-2.0678,-2.0683,-2.0658,-2.0714,-2.0716,-2.0717,-2.069,-2.0688,-2.0686,0,0,0,0,0,0,-2.0399,-2.0407,-2.0483,-2.0456,-2.0467,-2.0528,-2.0542,-2.0553,-2.0565,-2.0622,-2.0633,-2.0601,-2.0674,-2.068,-2.0684,-2.0661,-2.0717,-2.0718,-2.0692,-2.0689,-2.0687,-2.0608,0,0,0,0,0,0,-2.0396,-2.0405,-2.0398,-2.0455,-2.0468,-2.0484,-2.0541,-2.0554,-2.0569,-2.0576,-2.0625,-2.0635,-2.0675,-2.0681,-2.0685,-2.0664,-2.0719,-2.0694,-2.0691,-2.0688,-2.0612,-2.0603,-2.0594,0,0,0,0,0,-2.0392,-2.037,-2.0397,-2.0405,-2.0461,-2.0483,-2.049,-2.0539,-2.0567,-2.0559,-2.0595,-2.0633,-2.0665,-2.0681,-2.0686,-2.0665,-2.0695,-2.0692,-2.0688,-2.0616,-2.0605,-2.0595,0,0,0,0,0,0,-2.0304,-2.0378,-2.0409,-2.0405,-2.0438,-2.0497,-2.0488,-2.0525,-2.0548,-2.0554,-2.0612,-2.0622,-2.0618,-2.0643,-2.066,-2.0646,-2.0685,-2.0683,-2.0629,-2.0618,-2.0609,-2.0601,-2.0721,0,0,0,0,0,-2.0285,-2.03,-2.0363,-2.0354,-2.0369,-2.0426,-2.0437,-2.0473,-2.0508,-2.0521,-2.0558,-2.0587,-2.0605,-2.0614,-2.0632,-2.0619,-2.0629,-2.0607,-2.0598,-2.0591,-2.0585,-2.0579,-2.0569,-2.0674,-2.0674,-2.0674,0,0,-2.0244,-2.0287,-2.0291,-2.0337,-2.0366,-2.0378,-2.0436,-2.0445,-2.0454,-2.0521,-2.0527,-2.0556,-2.0593,-2.0588,-2.0587,-2.0608,-2.056,-2.0586,-2.0579,-2.0578,-2.0574,-2.0564,-2.0555,-2.0671,-2.0672,-2.0672,0,0,-2.0174,-2.021,-2.0205,-2.0235,-2.028,-2.0319,-2.0318,-2.0373,-2.0396,-2.0404,-2.0455,-2.0465,-2.0493,-2.0517,-2.0533,-2.0479,-2.0513,-2.0483,-2.0434,-2.0427,-2.0419,-2.0412,-2.0389,-2.038,-2.048,-2.0479,-2.0479,0,-2.0116,-2.0138,-2.0198,-2.0205,-2.0223,-2.029,-2.0285,-2.031,-2.0357,-2.0367,-2.0392,-2.0429,-2.0459,-2.046,-2.0447,-2.0459,-2.0458,-2.0475,-2.0416,-2.0409,-2.0403,-2.0382,-2.0374,-2.0475,-2.0476,-2.0476,-2.0476,0,-2.0063,-2.0077,-2.0069,-2.0116,-2.0134,-2.0135,-2.0193,-2.0204,-2.0241,-2.0276,-2.0283,-2.0323,-2.035,-2.0355,-2.0388,-2.036,-2.0372,-2.0406,-2.0445,-2.0388,-2.0369,-2.0362,-2.0469,-2.0471,-2.0472,-2.0473,0,0,-1.9932,-2.0019,-2.0014,-2.0037,-2.0095,-2.0105,-2.011,-2.0141,-2.0147,-2.018,-2.0183,-2.0208,-2.024,-2.0258,-2.0296,-2.0291,-2.0242,-2.0325,-2.0327,-2.0305,-2.0211,-2.0181,-2.0171,-2.0269,-2.0267,-2.0267,-2.0206,0,-1.9869,-1.9883,-1.994,-1.9935,-1.9949,-2.0016,-2.002,-2.0054,-2.0089,-2.0104,-2.0143,-2.0158,-2.0201,-2.0212,-2.0211,-2.0248,-2.0223,-2.0254,-2.0268,-2.0267,-2.0251,-2.0162,-2.013,-2.0071,-2.02,-2.0198,-2.0198,0,-1.9795,-1.9826,-1.9824,-1.9884,-1.9892,-1.9894,-1.9927,-1.9942,-1.9983,-2.0009,-2.0032,-2.0077,-2.0083,-2.0125,-2.0134,-2.0154,-2.0164,-2.0184,-2.0183,-2.0181,-2.0224,-2.0153,-2.0053,-2.0042,-2.0187,-2.0188,-2.0189,0,-1.9695,-1.9738,-1.9742,-1.9761,-1.9831,-1.9831,-1.986,-1.9903,-1.9919,-1.9948,-1.9958,-1.9987,-2.0001,-2.0022,-2.0072,-2.0098,-2.0074,-2.012,-2.0092,-2.009,-2.0078,-2.0077,-1.9973,-2.0093,-2.0094,-2.0094,-2.0094,0,-1.9615,-1.961,-1.9699,-1.97,-1.9697,-1.9764,-1.9757,-1.9793,-1.9832,-1.984,-1.9901,-1.9907,-1.9976,-1.9989,-2.0029,-2.0029,-2.0036,-2.0055,-2.0064,-2.0046,-2.0043,-2.0048,-2.0051,-2.0091,-2.0092,-2.0092,-2.0093,0,-1.9499,-1.956,-1.9568,-1.9637,-1.9654,-1.9648,-1.9705,-1.9709,-1.9751,-1.9761,-1.9767,-1.9831,-1.985,-1.9905,-1.9937,-1.9965,-1.9951,-1.9973,-1.9937,-1.9942,-1.9909,-1.9909,-1.9801,-1.9788,-1.9921,-1.992,-1.9919,0,-1.9441,-1.9439,-1.951,-1.9522,-1.9549,-1.9567,-1.9585,-1.9651,-1.9666,-1.9716,-1.9712,-1.9739,-1.9761,-1.9789,-1.9836,-1.9862,-1.9881,-1.9843,-1.9885,-1.9867,-1.9875,-1.9872,-1.9871,-1.983,-1.9828,-1.9827,-1.9826,0,-1.9329,-1.9361,-1.9385,-1.9421,-1.9441,-1.9471,-1.9505,-1.9511,-1.9585,-1.9599,-1.9622,-1.9641,-1.9677,-1.97,-1.9734,-1.9761,-1.9804,-1.9814,-1.9807,-1.9785,-1.9763,-1.977,-1.9905,-1.9814,-1.9815,-1.9816,-1.9816,-1.9817,-1.9237,-1.9239,-1.929,-1.9315,-1.9349,-1.938,-1.9387,-1.9432,-1.9454,-1.949,-1.9529,-1.9547,-1.959,-1.9641,-1.9666,-1.9679,-1.9702,-1.9694,-1.9691,-1.9686,-1.9676,-1.9767,-1.9686,-1.9687,-1.9687,-1.9687,-1.9688,0,-1.9124,-1.9162,-1.9186,-1.9233,-1.9253,-1.93,-1.9341,-1.9353,-1.9369,-1.9408,-1.9432,-1.9458,-1.9482,-1.9534,-1.9562,-1.9563,-1.9583,-1.9567,-1.9565,-1.957,-1.9656,-1.9657,-1.9551,-1.9551,-1.9551,-1.9551,-1.9551,-1.9551,-1.9068,-1.9073,-1.9111,-1.9134,-1.9171,-1.9192,-1.9211,-1.9239,-1.9271,-1.9298,-1.932,-1.9357,-1.94,-1.9433,-1.9457,-1.9471,-1.9476,-1.9453,-1.9473,-1.9551,-1.9564,-1.9576,-1.9576,-1.9455,-1.9455,-1.9385,-1.9384,-1.9383]},{"header":{"parameterUnit":"m.s-1","parameterCategory":1,"la1":30.2991,"la2":30.254,"lo1":-89.0895,"lo2":-89.0444,"dy":0.0017,"dx":0.0017,"nx":28,"ny":28,"refTime":"2024-06-11T03:00:00:Z","depth":0,"parameterNumber":3,"parameterNumberName":"V-component_of_WINDS"},"data":[0,0,0,0,0,0,0,0,0,0,0,0,0,0,0,0,0,0,0,0,0,0,0,0,0,0,0,0,0,0,0,0,0,0,0,0,0,0,0,0,0,0,0,0,0,0,0,0,0,0,0,0,0,0,0,0,0,0,-0.7037,-0.7039,0,-0.7245,-0.7248,-0.725,-0.739,-0.7391,-0.7392,-0.7393,-0.761,-0.7615,-0.762,0,0,0,0,0,0,0,0,0,0,0,0,0,-0.6764,-0.6769,-0.7037,-0.7039,-0.7042,-0.7245,-0.7248,-0.7251,-0.739,-0.7391,-0.7392,-0.7394,-0.7609,-0.7615,-0.762,0,0,0,0,0,0,0,0,0,0,0,0,0,-0.6919,-0.677,-0.7036,-0.7136,-0.7147,-0.7244,-0.7248,-0.7251,-0.739,-0.7391,-0.7393,-0.7394,-0.7607,-0.7614,-0.7621,-0.7637,0,0,-0.7644,-0.7647,0,0,0,0,0,0,0,0,-0.691,-0.6929,-0.7119,-0.7129,-0.7142,-0.7293,-0.7232,-0.7381,-0.7389,-0.7298,-0.7393,-0.7395,-0.7504,-0.752,-0.7556,-0.7647,-0.7657,-0.7644,-0.7649,-0.7652,-0.7654,0,0,0,0,0,0,0,-0.6899,-0.692,-0.712,-0.7121,-0.7135,-0.7172,-0.7195,-0.726,-0.739,-0.7306,-0.7316,-0.7339,-0.7511,-0.7548,-0.7562,-0.766,-0.7644,-0.765,-0.7655,-0.7658,-0.7776,-0.7775,0,0,0,0,0,0,-0.6872,-0.6911,-0.7113,-0.7126,-0.7027,-0.7175,-0.7202,-0.7243,-0.739,-0.7414,-0.7338,-0.7345,-0.7535,-0.7553,-0.757,-0.7599,-0.7652,-0.7659,-0.7663,-0.7777,-0.7776,-0.7774,0,0,0,0,0,0,-0.6865,-0.6889,-0.7105,-0.7021,-0.7051,-0.7179,-0.7224,-0.7247,-0.7285,-0.7414,-0.7438,-0.7352,-0.7537,-0.756,-0.7619,-0.7608,-0.7662,-0.7669,-0.7779,-0.7777,-0.7775,-0.7655,0,0,0,0,0,0,-0.6857,-0.6885,-0.6892,-0.702,-0.7055,-0.7148,-0.7223,-0.725,-0.7296,-0.7308,-0.7434,-0.7456,-0.754,-0.7608,-0.7627,-0.7619,-0.7674,-0.778,-0.7778,-0.7776,-0.7661,-0.7649,-0.764,0,0,0,0,0,-0.6847,-0.685,-0.6891,-0.6915,-0.7065,-0.7147,-0.7168,-0.7263,-0.7295,-0.7303,-0.7386,-0.7452,-0.7606,-0.7613,-0.7635,-0.763,-0.7781,-0.7779,-0.7776,-0.7665,-0.7652,-0.764,0,0,0,0,0,0,-0.6719,-0.6869,-0.6916,-0.6961,-0.704,-0.7171,-0.7184,-0.7245,-0.7318,-0.7326,-0.7442,-0.747,-0.7517,-0.758,-0.7584,-0.7653,-0.7702,-0.7703,-0.761,-0.7598,-0.7588,-0.7572,-0.768,0,0,0,0,0,-0.6695,-0.6748,-0.6877,-0.6905,-0.6942,-0.7055,-0.7095,-0.7161,-0.7249,-0.7283,-0.7371,-0.7454,-0.7522,-0.7564,-0.7633,-0.7671,-0.7701,-0.7678,-0.7668,-0.7659,-0.7658,-0.7684,-0.7675,-0.7765,-0.7765,-0.7765,0,0,-0.6649,-0.6737,-0.6764,-0.6881,-0.695,-0.7003,-0.7083,-0.7136,-0.7177,-0.7292,-0.7353,-0.742,-0.7521,-0.7569,-0.7595,-0.7623,-0.764,-0.7655,-0.7647,-0.7652,-0.768,-0.7671,-0.7663,-0.7763,-0.7764,-0.7764,0,0,-0.659,-0.6662,-0.6692,-0.676,-0.6863,-0.6939,-0.6946,-0.7068,-0.7116,-0.7179,-0.7266,-0.7318,-0.7431,-0.75,-0.7549,-0.7516,-0.758,-0.7536,-0.7481,-0.7504,-0.7497,-0.7491,-0.7479,-0.7474,-0.7535,-0.7535,-0.7535,0,-0.6519,-0.6601,-0.6701,-0.6748,-0.6798,-0.6903,-0.6936,-0.6997,-0.7118,-0.715,-0.7179,-0.7324,-0.74,-0.7466,-0.7457,-0.7494,-0.7507,-0.7522,-0.749,-0.7485,-0.7481,-0.7471,-0.7466,-0.7529,-0.753,-0.753,-0.7531,0,-0.6508,-0.6563,-0.6576,-0.6688,-0.674,-0.6779,-0.6887,-0.6927,-0.6989,-0.7062,-0.7125,-0.7219,-0.7309,-0.733,-0.7392,-0.7405,-0.7419,-0.7467,-0.7518,-0.7465,-0.7457,-0.7454,-0.752,-0.7523,-0.7524,-0.7526,0,0,-0.6374,-0.6541,-0.6544,-0.6596,-0.6718,-0.6763,-0.6809,-0.6895,-0.6927,-0.7008,-0.7049,-0.7143,-0.7188,-0.7244,-0.7315,-0.7335,-0.7303,-0.7381,-0.7385,-0.7363,-0.7323,-0.7285,-0.7279,-0.7346,-0.7346,-0.7345,-0.7315,0,-0.6333,-0.6417,-0.6509,-0.6562,-0.6615,-0.6716,-0.6756,-0.6835,-0.6905,-0.6961,-0.7039,-0.7103,-0.7158,-0.7193,-0.7217,-0.7301,-0.7296,-0.7305,-0.7386,-0.7388,-0.7356,-0.7276,-0.7236,-0.7202,-0.7312,-0.7312,-0.7312,0,-0.6297,-0.637,-0.6427,-0.6544,-0.657,-0.6603,-0.669,-0.6743,-0.6836,-0.6885,-0.6947,-0.7022,-0.7076,-0.7121,-0.7198,-0.7201,-0.7241,-0.7287,-0.7288,-0.7298,-0.7346,-0.7284,-0.7194,-0.7188,-0.7308,-0.7309,-0.7309,0,-0.6192,-0.6306,-0.6355,-0.6397,-0.6534,-0.6555,-0.6614,-0.6709,-0.6755,-0.6832,-0.6863,-0.6945,-0.699,-0.7053,-0.7149,-0.7173,-0.7215,-0.7268,-0.7258,-0.7256,-0.7262,-0.726,-0.7177,-0.7288,-0.7288,-0.7288,-0.7288,0,-0.6137,-0.6168,-0.631,-0.634,-0.6378,-0.6484,-0.652,-0.6588,-0.6671,-0.6717,-0.6811,-0.6852,-0.6976,-0.7033,-0.7109,-0.7161,-0.7181,-0.7223,-0.7242,-0.7214,-0.7208,-0.7241,-0.7245,-0.7287,-0.7287,-0.7287,-0.7287,0,-0.6026,-0.6123,-0.6183,-0.6308,-0.634,-0.6362,-0.647,-0.6504,-0.6579,-0.6636,-0.6656,-0.6774,-0.6846,-0.6948,-0.7051,-0.7102,-0.7143,-0.7175,-0.711,-0.7122,-0.7106,-0.7106,-0.704,-0.7037,-0.7149,-0.7148,-0.7147,0,-0.5984,-0.601,-0.6137,-0.6174,-0.6229,-0.6287,-0.6335,-0.6441,-0.6486,-0.6594,-0.6615,-0.6694,-0.6762,-0.6873,-0.6969,-0.7048,-0.7083,-0.7054,-0.7095,-0.7066,-0.7082,-0.7078,-0.7082,-0.7044,-0.7042,-0.704,-0.7039,0,-0.5899,-0.5945,-0.6009,-0.6089,-0.6142,-0.6211,-0.6284,-0.631,-0.6432,-0.6479,-0.6552,-0.6605,-0.671,-0.6787,-0.688,-0.6943,-0.7011,-0.7026,-0.7028,-0.6998,-0.696,-0.698,-0.7083,-0.7026,-0.7028,-0.7029,-0.7029,-0.703,-0.5822,-0.5849,-0.5942,-0.601,-0.6076,-0.6143,-0.618,-0.6259,-0.6322,-0.6414,-0.6474,-0.6544,-0.6638,-0.677,-0.6829,-0.6887,-0.6915,-0.6918,-0.6918,-0.6917,-0.6907,-0.695,-0.6904,-0.6905,-0.6905,-0.6906,-0.6906,0,-0.5741,-0.5805,-0.5867,-0.5965,-0.6019,-0.6078,-0.6162,-0.6204,-0.6264,-0.6345,-0.641,-0.6494,-0.657,-0.6671,-0.6755,-0.6781,-0.6815,-0.68,-0.6798,-0.6812,-0.6877,-0.6867,-0.6771,-0.6771,-0.6771,-0.6771,-0.6771,-0.6771,-0.5705,-0.5754,-0.5811,-0.5895,-0.5961,-0.6029,-0.6072,-0.6135,-0.62,-0.6289,-0.6352,-0.6417,-0.6507,-0.6597,-0.6669,-0.6698,-0.6724,-0.6698,-0.6736,-0.6795,-0.6807,-0.6819,-0.681,-0.6703,-0.6703,-0.6666,-0.6666,-0.6665]}]]